LC10 LICT-LIBG

Flight info

Callsign LC10
Flight time 0h 53m
Altitude 270
Route PRS1A ROSAS MAREP SIRGI
Aircraft B733/M-V/N

Departure

Time 2026-05-08 09:03
Airport Vincenzo Florio Airport Trapani-Birgi (LICT)

Arrival

Time 2026-05-08 09:56
Airport Taranto-Grottaglie Marcello Arlotta Airport (LIBG)
Time Latitude Longitude Altitude Speed Heading
2026-05-08 08:54 37.90135 12.49823 36 ft 0 kts 278°
2026-05-08 08:58 37.90135 12.49822 36 ft 0 kts 281°
2026-05-08 08:58 37.90139 12.49817 36 ft 1 kts 330°
2026-05-08 08:59 37.90147 12.49821 36 ft 1 kts 43°
2026-05-08 08:59 37.90154 12.49828 36 ft 1 kts 38°
2026-05-08 08:59 37.90166 12.49840 36 ft 3 kts 39°
2026-05-08 08:59 37.90178 12.49842 36 ft 2 kts 336°
2026-05-08 09:00 37.90199 12.49812 36 ft 7 kts 308°
2026-05-08 09:00 37.90244 12.49747 35 ft 11 kts 320°
2026-05-08 09:00 37.90303 12.49733 35 ft 8 kts 30°
2026-05-08 09:00 37.90363 12.49719 34 ft 11 kts 310°
2026-05-08 09:01 37.90426 12.49663 33 ft 13 kts 26°
2026-05-08 09:01 37.90503 12.49728 34 ft 10 kts 39°
2026-05-08 09:01 37.90540 12.49767 35 ft 2 kts 17°
2026-05-08 09:01 37.90550 12.49759 35 ft 0 kts 313°
2026-05-08 09:02 37.90635 12.49619 32 ft 54 kts 307°
2026-05-08 09:02 37.91019 12.48990 27 ft 123 kts 308°
2026-05-08 09:02 37.91655 12.47952 137 ft 164 kts 306°
2026-05-08 09:02 37.92421 12.46775 424 ft 188 kts 311°
2026-05-08 09:03 37.93365 12.45568 989 ft 196 kts 320°
2026-05-08 09:03 37.94642 12.45020 1526 ft 202 kts 357°
2026-05-08 09:03 37.96053 12.44970 2053 ft 207 kts 354°
2026-05-08 09:03 37.97522 12.44825 2557 ft 218 kts 351°
2026-05-08 09:04 37.99027 12.44406 3067 ft 224 kts 334°
2026-05-08 09:04 38.00468 12.43595 3598 ft 233 kts 333°
2026-05-08 09:04 38.01971 12.42704 4136 ft 245 kts 332°
2026-05-08 09:04 38.03525 12.41757 4671 ft 256 kts 332°
2026-05-08 09:05 38.05271 12.41179 5327 ft 267 kts 357°
2026-05-08 09:05 38.07059 12.41680 6019 ft 276 kts 24°
2026-05-08 09:05 38.08669 12.43021 6729 ft 281 kts 31°
2026-05-08 09:05 38.10254 12.44456 7434 ft 283 kts 31°
2026-05-08 09:06 38.11860 12.45903 8111 ft 286 kts 31°
2026-05-08 09:06 38.13430 12.47468 8833 ft 291 kts 44°
2026-05-08 09:06 38.14417 12.49713 9498 ft 301 kts 72°
2026-05-08 09:06 38.14644 12.52418 10135 ft 308 kts 84°
2026-05-08 09:07 38.14723 12.55224 10297 ft 330 kts 85°
2026-05-08 09:07 38.14800 12.58206 10420 ft 351 kts 85°
2026-05-08 09:07 38.14883 12.61382 10896 ft 360 kts 84°
2026-05-08 09:07 38.14987 12.64562 11539 ft 363 kts 83°
2026-05-08 09:08 38.15154 12.67781 12149 ft 366 kts 83°
2026-05-08 09:08 38.15325 12.71005 12793 ft 369 kts 82°
2026-05-08 09:08 38.15496 12.74255 13399 ft 372 kts 82°
2026-05-08 09:08 38.15669 12.77532 13979 ft 375 kts 82°
2026-05-08 09:09 38.15842 12.80836 14546 ft 378 kts 82°
2026-05-08 09:09 38.16016 12.84166 15098 ft 381 kts 82°
2026-05-08 09:09 38.16190 12.87523 15642 ft 384 kts 82°
2026-05-08 09:09 38.16363 12.90902 16173 ft 387 kts 82°
2026-05-08 09:10 38.16538 12.94314 16692 ft 389 kts 82°
2026-05-08 09:10 38.16713 12.97747 17204 ft 392 kts 82°
2026-05-08 09:10 38.16888 13.01201 17731 ft 394 kts 81°
2026-05-08 09:10 38.17265 13.04617 18239 ft 387 kts 67°
2026-05-08 09:11 38.18426 13.07638 18714 ft 376 kts 47°
2026-05-08 09:11 38.20229 13.09947 19186 ft 366 kts 30°
2026-05-08 09:11 38.22404 13.11544 19693 ft 363 kts 22°
2026-05-08 09:11 38.24636 13.13010 20201 ft 364 kts 22°
2026-05-08 09:12 38.26875 13.14492 20690 ft 365 kts 22°
2026-05-08 09:12 38.29119 13.15990 21162 ft 367 kts 23°
2026-05-08 09:12 38.31370 13.17498 21630 ft 368 kts 23°
2026-05-08 09:12 38.33624 13.19013 22097 ft 369 kts 23°
2026-05-08 09:13 38.35882 13.20532 22549 ft 370 kts 23°
2026-05-08 09:13 38.38150 13.22060 22960 ft 372 kts 23°
2026-05-08 09:13 38.40431 13.23597 23372 ft 373 kts 23°
2026-05-08 09:13 38.42721 13.25143 23771 ft 375 kts 23°
2026-05-08 09:14 38.45018 13.26694 24176 ft 376 kts 23°
2026-05-08 09:14 38.47325 13.28253 24561 ft 378 kts 22°
2026-05-08 09:14 38.49640 13.29819 24933 ft 379 kts 22°
2026-05-08 09:14 38.51968 13.31395 25289 ft 381 kts 22°
2026-05-08 09:15 38.54304 13.32977 25631 ft 383 kts 22°
2026-05-08 09:15 38.56652 13.34569 26020 ft 384 kts 22°
2026-05-08 09:15 38.59006 13.36166 26373 ft 385 kts 22°
2026-05-08 09:15 38.61328 13.37743 26710 ft 387 kts 22°
2026-05-08 09:16 38.63703 13.39356 26920 ft 389 kts 22°
2026-05-08 09:16 38.66077 13.40971 27003 ft 387 kts 22°
2026-05-08 09:16 38.68436 13.42577 26984 ft 385 kts 22°
2026-05-08 09:16 38.70789 13.44178 26970 ft 384 kts 22°
2026-05-08 09:17 38.73139 13.45780 26968 ft 384 kts 22°
2026-05-08 09:17 38.75485 13.47380 26966 ft 384 kts 22°
2026-05-08 09:17 38.77831 13.48981 26967 ft 383 kts 22°
2026-05-08 09:17 38.80176 13.50582 26965 ft 384 kts 22°
2026-05-08 09:18 38.82523 13.52186 26966 ft 384 kts 22°
2026-05-08 09:18 38.84835 13.53889 26954 ft 390 kts 31°
2026-05-08 09:18 38.86675 13.56537 26975 ft 405 kts 50°
2026-05-08 09:18 38.88131 13.59639 26974 ft 408 kts 51°
2026-05-08 09:19 38.89601 13.62735 26968 ft 407 kts 50°
2026-05-08 09:19 38.91105 13.65795 26962 ft 407 kts 50°
2026-05-08 09:19 38.92625 13.68846 26954 ft 406 kts 50°
2026-05-08 09:19 38.94150 13.71883 26972 ft 405 kts 50°
2026-05-08 09:20 38.95679 13.74913 26966 ft 406 kts 50°
2026-05-08 09:20 38.97210 13.77945 26968 ft 406 kts 49°
2026-05-08 09:20 38.98742 13.80980 26964 ft 406 kts 49°
2026-05-08 09:20 39.00277 13.84022 26965 ft 407 kts 50°
2026-05-08 09:21 39.01820 13.87084 26972 ft 407 kts 49°
2026-05-08 09:21 39.03352 13.90126 26967 ft 407 kts 50°
2026-05-08 09:22 39.12548 14.08421 26969 ft 407 kts 50°
2026-05-08 09:23 39.14080 14.11475 26970 ft 407 kts 49°
2026-05-08 09:23 39.15608 14.14528 26968 ft 406 kts 50°
2026-05-08 09:23 39.17135 14.17584 26964 ft 407 kts 50°
2026-05-08 09:23 39.18663 14.20645 26966 ft 407 kts 50°
2026-05-08 09:24 39.20187 14.23704 26959 ft 407 kts 49°
2026-05-08 09:24 39.21715 14.26773 26960 ft 407 kts 49°
2026-05-08 09:24 39.23243 14.29845 26953 ft 408 kts 50°
2026-05-08 09:24 39.24764 14.32908 26946 ft 408 kts 49°
2026-05-08 09:25 39.26292 14.35984 26946 ft 408 kts 49°
2026-05-08 09:25 39.27817 14.39060 26945 ft 408 kts 50°
2026-05-08 09:25 39.29342 14.42139 26942 ft 407 kts 49°
2026-05-08 09:25 39.30864 14.45212 26938 ft 407 kts 49°
2026-05-08 09:26 39.32384 14.48287 26943 ft 407 kts 49°
2026-05-08 09:26 39.33902 14.51361 26943 ft 406 kts 49°
2026-05-08 09:26 39.35417 14.54432 26937 ft 406 kts 49°
2026-05-08 09:26 39.36933 14.57506 26941 ft 407 kts 49°
2026-05-08 09:27 39.38451 14.60586 26935 ft 407 kts 50°
2026-05-08 09:27 39.39970 14.63673 26942 ft 408 kts 50°
2026-05-08 09:27 39.41487 14.66762 26922 ft 407 kts 50°
2026-05-08 09:27 39.42997 14.69851 26936 ft 407 kts 50°
2026-05-08 09:28 39.44507 14.72936 26938 ft 407 kts 50°
2026-05-08 09:28 39.46014 14.76013 26938 ft 408 kts 50°
2026-05-08 09:28 39.47542 14.79134 26944 ft 408 kts 50°
2026-05-08 09:28 39.49043 14.82204 26943 ft 408 kts 50°
2026-05-08 09:29 39.50571 14.85330 26943 ft 407 kts 50°
2026-05-08 09:29 39.52078 14.88416 26938 ft 407 kts 50°
2026-05-08 09:29 39.53596 14.91531 26943 ft 407 kts 50°
2026-05-08 09:29 39.55089 14.94595 26947 ft 405 kts 50°
2026-05-08 09:30 39.56586 14.97671 26949 ft 402 kts 49°
2026-05-08 09:30 39.58062 15.00705 26938 ft 400 kts 49°
2026-05-08 09:30 39.59541 15.03748 26937 ft 399 kts 49°
2026-05-08 09:30 39.61012 15.06778 26945 ft 396 kts 49°
2026-05-08 09:31 39.62471 15.09788 26942 ft 393 kts 49°
2026-05-08 09:31 39.63921 15.12781 26936 ft 392 kts 49°
2026-05-08 09:31 39.65354 15.15738 26931 ft 392 kts 49°
2026-05-08 09:31 39.66808 15.18744 26938 ft 392 kts 49°
2026-05-08 09:32 39.68254 15.21736 26941 ft 392 kts 49°
2026-05-08 09:32 39.69720 15.24773 26937 ft 392 kts 49°
2026-05-08 09:32 39.71145 15.27727 26940 ft 392 kts 49°
2026-05-08 09:32 39.72606 15.30758 26942 ft 392 kts 49°
2026-05-08 09:33 39.74047 15.33753 26937 ft 393 kts 49°
2026-05-08 09:33 39.75495 15.36764 26944 ft 393 kts 49°
2026-05-08 09:33 39.76934 15.39759 26941 ft 392 kts 49°
2026-05-08 09:33 39.78381 15.42775 26942 ft 392 kts 49°
2026-05-08 09:34 39.79832 15.45801 26941 ft 392 kts 49°
2026-05-08 09:34 39.81266 15.48795 26939 ft 393 kts 49°
2026-05-08 09:34 39.82715 15.51822 26946 ft 393 kts 49°
2026-05-08 09:34 39.84170 15.54865 26939 ft 393 kts 49°
2026-05-08 09:35 39.85595 15.57849 26942 ft 392 kts 49°
2026-05-08 09:35 39.86964 15.60937 26927 ft 401 kts 58°
2026-05-08 09:35 39.87859 15.64486 26803 ft 414 kts 63°
2026-05-08 09:35 39.88666 15.68071 26169 ft 411 kts 64°
2026-05-08 09:36 39.89473 15.71557 25564 ft 406 kts 63°
2026-05-08 09:36 39.90311 15.75074 25038 ft 399 kts 63°
2026-05-08 09:36 39.91132 15.78476 24536 ft 393 kts 63°
2026-05-08 09:36 39.91943 15.81825 24034 ft 386 kts 63°
2026-05-08 09:37 39.92744 15.85124 23532 ft 381 kts 63°
2026-05-08 09:37 39.93541 15.88406 23049 ft 375 kts 63°
2026-05-08 09:37 39.94320 15.91615 22595 ft 371 kts 64°
2026-05-08 09:37 39.95085 15.94771 22155 ft 371 kts 64°
2026-05-08 09:38 39.95870 15.98013 21702 ft 371 kts 64°
2026-05-08 09:38 39.96629 16.01158 21262 ft 370 kts 64°
2026-05-08 09:38 39.97396 16.04339 20812 ft 368 kts 64°
2026-05-08 09:38 39.98157 16.07500 20364 ft 365 kts 64°
2026-05-08 09:39 39.98919 16.10668 19912 ft 363 kts 65°
2026-05-08 09:39 39.99664 16.13769 19470 ft 362 kts 65°
2026-05-08 09:39 40.00412 16.16885 19024 ft 361 kts 65°
2026-05-08 09:39 40.01159 16.20005 18576 ft 359 kts 65°
2026-05-08 09:40 40.01904 16.23116 18124 ft 357 kts 65°
2026-05-08 09:40 40.02642 16.26210 17672 ft 354 kts 66°
2026-05-08 09:40 40.03367 16.29247 17206 ft 352 kts 66°
2026-05-08 09:40 40.04090 16.32279 16744 ft 350 kts 66°
2026-05-08 09:41 40.04812 16.35312 16294 ft 348 kts 66°
2026-05-08 09:41 40.05524 16.38310 15872 ft 345 kts 66°
2026-05-08 09:41 40.06231 16.41289 15474 ft 344 kts 67°
2026-05-08 09:41 40.06935 16.44256 15077 ft 343 kts 67°
2026-05-08 09:42 40.07636 16.47217 14678 ft 341 kts 67°
2026-05-08 09:42 40.08332 16.50162 14280 ft 340 kts 67°
2026-05-08 09:42 40.09024 16.53092 13881 ft 338 kts 68°
2026-05-08 09:42 40.09712 16.56011 13482 ft 336 kts 68°
2026-05-08 09:43 40.10399 16.58912 13073 ft 335 kts 68°
2026-05-08 09:43 40.11088 16.61798 12674 ft 333 kts 68°
2026-05-08 09:43 40.11768 16.64668 12276 ft 331 kts 68°
2026-05-08 09:43 40.12441 16.67530 11850 ft 330 kts 69°
2026-05-08 09:44 40.13118 16.70372 11450 ft 327 kts 66°
2026-05-08 09:44 40.13953 16.73099 11051 ft 323 kts 64°
2026-05-08 09:44 40.14822 16.75801 10651 ft 321 kts 64°
2026-05-08 09:44 40.15688 16.78484 10208 ft 320 kts 64°
2026-05-08 09:45 40.16542 16.81135 9737 ft 318 kts 64°
2026-05-08 09:45 40.17395 16.83779 9315 ft 313 kts 64°
2026-05-08 09:45 40.18235 16.86387 8939 ft 311 kts 64°
2026-05-08 09:45 40.19095 16.89058 8555 ft 309 kts 64°
2026-05-08 09:46 40.19930 16.91655 8191 ft 307 kts 64°
2026-05-08 09:46 40.20755 16.94219 7835 ft 301 kts 64°
2026-05-08 09:46 40.21565 16.96740 7479 ft 295 kts 64°
2026-05-08 09:46 40.22345 16.99172 7129 ft 290 kts 64°
2026-05-08 09:47 40.23121 17.01590 6774 ft 284 kts 64°
2026-05-08 09:47 40.23877 17.03949 6423 ft 280 kts 64°
2026-05-08 09:47 40.24618 17.06265 6108 ft 273 kts 64°
2026-05-08 09:47 40.25349 17.08549 5800 ft 267 kts 65°
2026-05-08 09:48 40.26058 17.10770 5495 ft 262 kts 65°
2026-05-08 09:48 40.26746 17.12922 5199 ft 260 kts 65°
2026-05-08 09:48 40.27445 17.15112 4902 ft 261 kts 65°
2026-05-08 09:48 40.28142 17.17300 4603 ft 260 kts 65°
2026-05-08 09:49 40.28831 17.19465 4302 ft 257 kts 65°
2026-05-08 09:49 40.29518 17.21620 4000 ft 252 kts 65°
2026-05-08 09:49 40.30187 17.23727 3737 ft 245 kts 65°
2026-05-08 09:49 40.30842 17.25787 3476 ft 240 kts 65°
2026-05-08 09:50 40.31475 17.27780 3219 ft 234 kts 65°
2026-05-08 09:50 40.32101 17.29752 2959 ft 230 kts 65°
2026-05-08 09:50 40.32709 17.31669 2702 ft 225 kts 65°
2026-05-08 09:50 40.33307 17.33557 2521 ft 216 kts 65°
2026-05-08 09:51 40.33868 17.35328 2420 ft 203 kts 65°
2026-05-08 09:51 40.34391 17.36981 2322 ft 191 kts 65°
2026-05-08 09:51 40.34889 17.38549 2231 ft 182 kts 65°
2026-05-08 09:51 40.35371 17.40068 2184 ft 178 kts 65°
2026-05-08 09:52 40.35835 17.41535 2208 ft 175 kts 65°
2026-05-08 09:52 40.36416 17.42894 2274 ft 169 kts 44°
2026-05-08 09:52 40.37419 17.43665 2206 ft 168 kts 14°
2026-05-08 09:52 40.38582 17.43669 2185 ft 168 kts 349°
2026-05-08 09:53 40.39718 17.43388 2199 ft 168 kts 351°
2026-05-08 09:53 40.40879 17.43125 2096 ft 170 kts 351°
2026-05-08 09:53 40.42044 17.42853 1832 ft 169 kts 351°
2026-05-08 09:53 40.43179 17.42571 1584 ft 167 kts 350°
2026-05-08 09:54 40.44329 17.42277 1358 ft 167 kts 350°
2026-05-08 09:54 40.45444 17.41987 1142 ft 156 kts 350°
2026-05-08 09:54 40.46439 17.41722 946 ft 140 kts 350°
2026-05-08 09:54 40.47414 17.41467 754 ft 141 kts 350°
2026-05-08 09:55 40.48369 17.41218 560 ft 140 kts 350°
2026-05-08 09:55 40.49337 17.40966 362 ft 143 kts 350°
2026-05-08 09:55 40.50306 17.40710 208 ft 136 kts 349°
2026-05-08 09:55 40.51144 17.40491 201 ft 102 kts 347°
2026-05-08 09:56 40.51696 17.40346 204 ft 54 kts 348°
2026-05-08 09:56 40.51812 17.40270 207 ft 5 kts 278°
2026-05-08 09:56 40.51808 17.40215 207 ft 6 kts 259°
2026-05-08 09:56 40.51797 17.40144 206 ft 9 kts 258°
2026-05-08 09:57 40.51771 17.39934 205 ft 13 kts 302°
2026-05-08 09:57 40.51797 17.39850 203 ft 5 kts 298°
2026-05-08 09:57 40.51798 17.39848 203 ft 0 kts 300°